Weather in Shcheglovo

Russia / Saint-Petersburg and Leningrad Oblast     60°01′38″N   30°45′12″E
temp.,
°C
wind,
m/s
gust,
m/s
humid.,
%
clouds,
%
prec.,
mm/h
press.,
hPa
HPBL,
m
13 april, tue
tue1300:00+10sse41366100 0.0 1020400
03:00+8s31172100 0.0 1019314
06:00+7s31081100 0.0 1019286
09:00+10ssw367010 0.0 1019378
12:00+13sw3558100 0.0 1019837
15:00+12wsw246882 0.0 1020430
18:00+8wnw357774 0.0 1020334
21:00+6wnw3678100 0.0 1020313
14 april, wed
wed1400:00+4wnw3677100 0.0 1019297
03:00+3nw3791100 0.0 1019439
06:00+2nw3895100 1.1 1018447
09:00+3wnw1283100 1.7 1019250
12:00+4w237198 0.0 1020448
15:00+8nw234587 0.0 10201243
18:00+7ene1357100 0.0 1021709
21:00+4ne0173100 0.0 102313
15 april, thu
thu1500:00+3nne267591 0.0 1024194
03:00+2nne397995 0.0 1025266
06:00+1nne3108597 0.0 1026304
09:00+3nne497298 0.0 1027594
12:00+5ne5859100 0.0 1028789
15:00+6ne584990 0.0 1028888
18:00+6nne485221 0.0 1028785
21:00+2nne3106617 0.0 1029281
16 april, fri
fri1600:00+1ne29770 0.0 1030201
03:000ne28825 0.0 1030158
06:000ne288233 0.0 1030188
09:00+5ne485629 0.0 1031494
12:00+7ne474420 0.0 1031793
15:00+8ne584050 0.0 1032815
18:00+7ne385023 0.0 1032639
21:00+4ne3107383 0.0 1033248
17 april, sat
sat1700:00+4ene312756 0.0 1034342
03:00+2ne310836 0.0 1035277
06:00+1ne38915 0.0 1037223
09:00+5ene37725 0.0 1037399
12:00+8ne46562 0.0 1037771
15:00+9ne45490 0.0 1037872
18:00+8ne36450 0.0 1036446
21:00+3ne27674 0.0 1036142